Location: Saddleback Butte
(34.6776°N, 117.8050°W)
Time: 08:14:30
(UTC-07:00)

Iridium 35 - Visible Passes

Search period start: 24 May 2015 00:00
Search period end: 03 June 2015 00:00
Orbit: 776 x 779 km, 86.4° (Epoch: 24 May)

Date Brightness Start Highest point End Pass type
(mag) Time Alt. Az. Time Alt. Az. Time Alt. Az.
24 May 6.7 02:15:17 24° E 02:15:59 24° E 02:20:12 10° NNE visible
24 May 5.9 03:55:46 29° W 03:56:36 31° W 04:01:09 10° NNW visible
25 May 7.5 01:42:00 12° E 01:42:41 13° E 01:44:59 10° NE visible
25 May 5.0 03:22:29 57° WSW 03:22:56 60° W 03:28:06 10° N visible
26 May 5.1 02:49:11 70° ESE 02:49:25 71° E 02:54:37 10° N visible
26 May 7.1 04:29:41 10° W 04:30:50 10° WNW 04:31:35 10° WNW visible
27 May 6.1 02:15:53 36° E 02:15:59 36° E 02:20:45 10° NNE visible
27 May 6.4 03:56:22 21° W 03:56:53 21° WNW 04:00:41 10° NNW visible
28 May 7.0 01:42:34 19° E 01:42:39 19° E 01:46:19 10° NE visible
28 May 5.6 03:23:03 39° W 03:23:07 39° W 03:27:58 10° NNW visible
29 May 4.9 02:49:43 76° WNW 02:49:43 76° WNW 02:54:44 10° N visible
30 May 5.6 02:16:23 53° ENE 02:16:23 53° ENE 02:21:07 10° NNE visible
30 May 6.9 03:56:52 14° W 03:57:13 14° WNW 03:59:45 10° NW visible
31 May 6.6 01:43:02 28° ENE 01:43:02 28° ENE 01:47:03 10° NNE visible
31 May 6.2 03:23:31 27° WNW 03:23:31 27° WNW 03:27:40 10° NNW visible
01 Jun 7.3 01:09:41 15° ENE 01:09:41 15° ENE 01:12:12 10° NE visible
01 Jun 5.4 02:50:09 49° WNW 02:50:09 49° WNW 02:54:43 10° N visible
02 Jun 5.3 02:16:47 66° NNE 02:16:47 66° NNE 02:21:19 10° N visible
